Wind_Speed
30 27 25 23 22 23 26 28 30 32 32 31 31 32 32 30 30 31 31 32 34 34 35 35 35 34 31 28 28 29 32 34 37 39 41 43 43 44 45 46 47 47 48
34 31 29 26 25 25 27 29 31 33 33 33 34 34 34 31 30 29 30 30 32 33 33 33 33 30 30 30 32 34 36 37 39 40 42 43 44 45 47 48 49 50 51
34 33 31 28 27 26 27 30 33 35 35 36 36 36 37 35 32 30 26 27 29 29 29 30 32 34 37 37 37 38 39 41 42 42 43 44 46 48 49 50 52 54 55
34 33 32 30 29 28 30 33 36 38 37 38 37 38 39 36 33 28 25 24 25 26 27 31 35 37 38 39 40 42 43 44 45 45 47 48 50 51 52 53 55 57 59
34 34 33 32 32 33 34 37 40 40 39 40 39 39 38 35 32 26 22 21 23 26 30 33 36 39 41 43 44 45 46 47 48 49 50 51 53 55 56 56 58 59 61
35 34 34 35 35 37 39 42 41 40 40 40 39 38 37 33 29 24 23 24 26 30 34 37 40 42 45 47 47 48 49 50 52 54 56 57 58 60 60 60 60 60 61
35 34 35 36 38 40 41 40 39 39 39 40 40 39 36 32 30 27 26 28 31 34 38 41 43 46 49 50 51 52 53 55 58 59 61 61 62 62 63 63 62 62 61
33 34 34 35 36 37 36 35 36 37 38 38 37 36 35 33 31 30 30 32 35 39 43 45 48 50 52 53 55 56 58 61 63 63 63 62 62 63 63 64 65 65 64
29 30 30 30 31 31 32 33 34 35 36 36 37 38 38 34 33 33 34 37 40 44 47 50 52 54 56 58 60 61 64 65 65 64 63 62 63 64 65 66 68 69 67
28 28 29 29 30 30 31 33 35 36 38 38 38 39 39 38 38 38 40 43 46 49 52 54 56 59 60 62 64 66 67 66 65 64 63 64 65 65 66 67 68 69 69
28 29 29 30 32 33 35 36 38 40 41 41 40 39 38 38 40 41 43 47 50 52 54 57 59 62 64 66 67 68 67 65 64 65 65 65 64 64 64 65 66 68 69
27 29 30 32 34 36 38 40 42 43 43 43 42 40 39 41 43 44 46 49 52 54 57 60 62 64 66 67 67 66 65 64 64 65 64 63 62 62 64 65 66 68 70
29 30 32 34 36 39 41 43 44 45 44 43 41 40 41 43 45 47 49 51 54 56 59 61 64 65 66 66 64 63 63 63 63 62 61 61 62 62 63 65 66 66 66
31 33 35 37 39 41 43 44 44 44 42 41 41 43 45 46 48 49 51 53 56 58 60 62 63 63 63 62 61 62 62 61 60 60 60 61 61 62 62 63 62 60 57
36 37 39 41 42 44 45 46 45 43 43 44 45 47 48 49 50 51 53 54 57 59 60 60 60 59 60 60 61 61 60 59 59 59 59 60 60 60 59 57 53 49 44
39 41 42 43 44 44 46 46 47 47 47 47 46 47 48 49 50 51 53 54 56 57 57 57 57 58 58 59 59 59 58 57 57 57 57 57 56 53 50 46 43 37 31
38 39 41 43 44 46 48 49 49 48 48 47 46 47 47 48 49 51 52 53 54 54 55 56 56 57 57 56 56 56 56 56 55 54 53 50 47 43 39 34 30 26 23
42 44 46 47 49 50 50 50 49 49 48 47 46 46 46 47 49 50 50 51 52 52 53 54 54 54 54 54 54 54 54 53 51 48 45 41 38 32 27 23 21 20 20
45 46 48 49 50 50 50 50 50 48 47 45 45 45 46 47 48 48 48 49 49 50 51 51 51 51 52 52 51 51 50 47 44 40 36 32 26 21 18 17 17 18 19
44 45 47 48 49 49 49 48 47 45 43 43 43 44 45 46 46 46 47 47 48 48 49 49 49 49 49 49 47 45 42 38 36 32 30 24 17 15 15 15 16 18 19
43 44 45 46 46 46 45 44 43 42 42 42 43 43 43 44 44 45 45 46 46 47 47 47 47 47 45 42 39 35 32 30 29 27 24 17 13 13 14 16 17 19 19
40 41 41 41 41 41 41 41 41 41 41 41 41 41 41 42 42 43 44 44 45 45 45 44 42 39 36 32 29 28 27 26 24 21 16 12 11 12 14 16 17 18 19
37 37 38 39 39 39 39 39 38 38 38 38 38 38 39 40 41 42 43 43 42 41 39 37 34 31 28 26 25 25 24 21 18 13 9 8 9 12 14 15 16 17 17
35 36 36 36 36 35 34 33 34 34 34 35 36 37 38 40 40 40 40 39 36 34 31 29 28 27 25 25 24 22 18 14 10 6 4 5 8 11 12 13 15 15 14
31 31 30 28 27 27 27 28 30 31 33 35 36 37 38 38 37 35 33 31 29 27 27 26 25 24 22 21 19 16 11 6 3 1 1 5 8 10 11 12 13 13 14
23 21 20 20 21 23 24 26 29 31 33 34 35 34 33 32 30 28 27 26 25 25 24 22 21 19 18 16 13 8 3 4 4 3 3 6 8 9 10 12 12 13 14
Wind_Direction
262 263 267 273 282 290 297 303 307 308 306 304 302 297 293 286 285 283 278 275 274 276 279 282 287 288 283 281 284 290 295 297 299 300 299 299 298 298 297 296 295 294 292
258 262 267 272 278 284 290 298 303 302 300 298 296 293 293 289 287 287 283 278 276 278 277 281 285 286 291 297 300 303 304 304 303 301 299 298 297 297 296 295 293 292 290
256 258 263 269 273 279 288 295 298 299 296 294 291 286 287 288 288 287 285 280 276 276 279 286 292 300 306 307 307 308 306 305 304 302 300 298 296 295 295 293 292 291 290
255 257 261 266 272 280 285 291 294 296 293 291 289 285 289 285 289 288 284 280 280 285 291 299 304 307 308 308 309 308 307 306 304 302 300 297 296 295 294 293 292 291 291
257 257 261 267 273 279 284 288 291 292 289 287 288 288 292 292 292 289 285 288 292 298 300 303 306 307 308 308 308 308 308 306 305 303 302 299 297 296 294 293 292 292 292
261 262 265 269 273 277 281 285 286 285 285 286 287 290 291 298 297 293 292 297 300 302 304 307 308 308 308 308 308 308 307 306 305 304 302 300 298 296 295 293 291 292 293
264 265 267 269 271 274 277 279 280 282 285 288 290 293 300 300 293 294 298 302 303 303 305 306 306 307 307 307 306 306 305 305 304 303 302 301 299 297 296 295 294 293 293
261 262 264 266 268 271 273 275 277 281 286 290 294 301 304 301 298 298 300 301 301 302 303 304 305 306 306 305 304 304 304 304 304 303 302 301 300 299 298 297 296 295 294
262 263 263 264 266 269 272 275 279 283 289 294 298 301 301 298 298 298 299 299 299 299 301 302 303 303 303 303 303 303 303 304 304 303 302 301 300 300 299 297 296 295 293
262 264 266 269 272 275 278 280 283 287 291 293 296 298 298 297 296 296 296 297 297 298 299 300 301 302 302 301 301 302 303 304 304 303 302 301 301 300 299 298 296 295 294
264 267 272 276 279 282 285 286 288 289 290 290 292 294 296 298 297 296 295 295 295 297 298 299 299 300 300 300 301 301 302 303 302 302 302 302 302 300 299 298 297 296 295
266 270 274 278 282 285 288 290 290 290 288 288 291 293 294 295 296 295 295 295 296 296 297 297 298 298 298 299 300 301 302 302 303 304 304 303 302 301 300 299 298 297 297
268 272 277 281 284 286 289 291 291 288 287 286 289 292 294 295 295 295 295 295 295 296 296 296 297 297 298 299 300 301 302 303 304 305 304 303 302 302 301 300 300 300 300
272 276 281 283 286 288 289 290 290 289 287 287 291 294 295 295 295 295 295 295 295 295 296 296 296 297 298 299 300 302 303 305 305 304 304 303 303 302 302 302 303 303 304
274 280 284 286 288 288 289 290 289 290 292 294 295 295 295 294 294 294 294 294 294 295 295 296 296 297 299 300 302 303 304 304 304 304 304 303 303 303 304 306 307 308 310
275 280 284 286 287 287 289 289 291 294 297 296 295 294 292 292 292 292 292 292 293 294 295 296 297 298 299 301 302 303 303 303 303 303 303 303 304 306 309 310 311 314 317
277 281 283 285 286 288 291 294 296 297 297 296 294 292 291 290 290 290 291 292 293 294 295 296 296 298 300 301 301 302 302 302 302 302 303 304 307 309 310 311 315 320 325
280 282 284 286 288 290 293 295 295 295 295 294 292 290 289 289 290 291 292 292 293 294 295 296 297 298 299 300 300 300 300 301 301 302 304 307 309 310 311 315 319 323 326
281 283 286 288 290 292 294 294 295 295 293 291 289 288 288 289 291 292 292 292 293 294 295 296 297 297 298 299 299 299 300 301 302 304 306 309 309 310 315 319 322 325 327
283 285 287 289 291 293 294 294 294 293 291 289 288 288 289 290 291 291 292 292 293 294 295 296 297 298 298 299 299 300 301 302 304 305 308 310 312 316 321 324 325 327 328
285 287 289 290 291 292 292 292 291 290 289 289 289 290 290 290 291 292 292 293 294 294 295 296 297 298 298 299 299 300 301 301 303 305 307 309 317 323 326 326 328 330 333
286 287 289 290 290 290 289 289 288 288 288 289 289 289 289 290 291 292 293 294 294 296 296 297 298 299 300 300 300 300 301 302 302 303 302 308 320 327 329 331 335 339 342
285 286 287 287 288 288 288 288 288 289 289 289 289 290 290 291 292 293 294 295 297 298 299 300 301 300 300 300 300 301 302 302 300 296 297 311 325 331 335 339 344 348 355
284 285 286 287 287 288 288 288 289 289 291 292 292 293 293 294 295 296 297 298 300 301 301 301 301 300 299 300 301 302 301 297 289 280 296 326 337 340 345 351 357 5 20
286 287 289 290 291 292 293 293 294 294 294 295 295 295 296 297 298 299 300 301 301 301 302 302 302 301 301 300 300 301 297 284 236 209 356 353 351 354 0 7 16 30 37
292 294 296 298 298 299 299 298 298 298 298 298 298 299 300 300 301 302 303 303 303 304 305 306 305 305 303 301 299 293 257 162 140 108 39 11 6 11 20 29 40 45 42
Height
5863 5864 5865 5866 5866 5866 5865 5863 5860 5857 5854 5852 5850 5847 5843 5841 5840 5837 5835 5833 5832 5830 5828 5826 5825 5823 5822 5822 5821 5820 5818 5817 5814 5811 5808 5805 5802 5799 5796 5793 5790 5787 5784
5856 5858 5859 5861 5861 5861 5860 5858 5855 5852 5849 5846 5843 5839 5836 5833 5832 5829 5827 5826 5824 5822 5821 5819 5818 5816 5815 5813 5812 5812 5810 5808 5805 5802 5799 5795 5793 5789 5786 5782 5778 5774 5771
5850 5852 5853 5855 5855 5855 5854 5852 5850 5847 5843 5840 5835 5831 5828 5825 5823 5822 5821 5819 5817 5815 5814 5813 5810 5809 5807 5806 5804 5803 5801 5798 5795 5792 5789 5785 5782 5778 5775 5771 5766 5762 5757
5844 5846 5847 5848 5849 5849 5848 5846 5843 5841 5837 5833 5829 5825 5819 5815 5814 5814 5813 5812 5810 5808 5807 5806 5804 5802 5800 5798 5795 5793 5790 5787 5785 5781 5778 5774 5769 5765 5762 5758 5752 5747 5742
5837 5839 5841 5842 5842 5842 5841 5839 5837 5834 5831 5826 5822 5817 5813 5809 5807 5806 5805 5805 5803 5802 5801 5799 5797 5795 5792 5789 5786 5783 5780 5777 5773 5769 5765 5761 5756 5751 5747 5744 5739 5733 5726
5830 5832 5834 5834 5835 5834 5833 5832 5829 5826 5822 5817 5812 5808 5805 5802 5800 5799 5798 5798 5797 5796 5794 5792 5790 5787 5783 5780 5776 5773 5769 5765 5761 5756 5751 5747 5742 5737 5732 5728 5725 5720 5713
5823 5825 5826 5827 5827 5826 5825 5824 5821 5817 5814 5809 5804 5801 5797 5795 5794 5793 5792 5791 5790 5789 5787 5785 5782 5778 5774 5770 5766 5762 5758 5753 5748 5743 5738 5732 5727 5721 5716 5711 5707 5704 5699
5816 5817 5818 5819 5819 5818 5817 5815 5812 5810 5806 5802 5798 5795 5793 5791 5788 5787 5785 5785 5783 5782 5779 5776 5772 5768 5764 5760 5756 5751 5747 5741 5736 5730 5724 5717 5711 5705 5699 5693 5688 5684 5682
5810 5810 5811 5811 5811 5811 5809 5807 5805 5802 5799 5795 5793 5790 5787 5784 5781 5780 5779 5777 5776 5773 5770 5766 5762 5758 5754 5749 5744 5739 5734 5728 5722 5716 5709 5703 5696 5689 5682 5675 5669 5663 5661
5804 5805 5805 5804 5804 5803 5801 5800 5797 5794 5792 5788 5785 5782 5780 5777 5775 5773 5771 5769 5767 5764 5760 5756 5752 5747 5742 5737 5731 5726 5720 5714 5708 5701 5695 5688 5681 5674 5666 5658 5650 5642 5637
5799 5799 5798 5797 5796 5795 5793 5792 5789 5787 5784 5781 5778 5775 5772 5770 5767 5765 5763 5760 5757 5753 5749 5744 5740 5735 5729 5724 5718 5712 5706 5700 5694 5687 5680 5672 5665 5657 5649 5641 5632 5624 5616
5792 5791 5791 5790 5788 5787 5785 5784 5781 5779 5776 5773 5770 5767 5764 5762 5759 5756 5753 5749 5745 5741 5736 5732 5727 5721 5716 5710 5704 5698 5692 5686 5679 5672 5665 5657 5650 5642 5633 5625 5616 5607 5598
5784 5783 5783 5782 5780 5779 5777 5774 5772 5769 5766 5764 5761 5758 5755 5752 5749 5745 5742 5737 5733 5728 5723 5718 5713 5708 5702 5696 5690 5684 5678 5671 5664 5657 5650 5643 5635 5627 5619 5610 5600 5591 5581
5775 5774 5774 5773 5771 5769 5767 5765 5762 5760 5757 5754 5752 5749 5745 5741 5737 5734 5729 5725 5720 5715 5710 5704 5699 5694 5688 5682 5676 5670 5664 5657 5650 5643 5636 5629 5621 5614 5605 5596 5585 5576 5567
5765 5764 5764 5763 5761 5759 5757 5755 5752 5749 5746 5744 5741 5738 5734 5729 5725 5721 5716 5712 5707 5701 5696 5691 5685 5680 5675 5669 5664 5657 5651 5645 5638 5630 5622 5615 5607 5599 5591 5582 5573 5564 5556
5755 5754 5753 5752 5751 5749 5747 5744 5741 5738 5735 5732 5729 5725 5721 5717 5713 5708 5704 5699 5693 5688 5683 5678 5673 5668 5662 5657 5651 5645 5638 5632 5626 5619 5611 5603 5595 5587 5579 5571 5563 5555 5549
5744 5744 5743 5741 5740 5737 5735 5732 5730 5726 5723 5720 5716 5712 5708 5704 5700 5696 5691 5686 5680 5675 5670 5665 5660 5655 5650 5645 5639 5632 5626 5620 5614 5607 5600 5592 5585 5578 5571 5564 5557 5551 5545
5734 5733 5732 5730 5728 5725 5723 5720 5717 5714 5711 5707 5703 5699 5695 5691 5687 5682 5677 5673 5668 5663 5658 5653 5648 5643 5638 5633 5627 5621 5615 5608 5602 5596 5590 5584 5577 5571 5565 5560 5554 5549 5544
5723 5722 5720 5718 5715 5713 5710 5707 5704 5701 5697 5693 5689 5686 5682 5678 5673 5669 5664 5660 5655 5651 5646 5641 5636 5631 5626 5621 5615 5609 5603 5597 5591 5586 5581 5576 5571 5566 5561 5557 5552 5548 5543
5711 5710 5708 5706 5703 5700 5697 5694 5691 5687 5684 5680 5677 5673 5669 5664 5660 5656 5652 5648 5643 5639 5634 5629 5624 5619 5614 5608 5603 5598 5592 5587 5583 5578 5574 5570 5566 5562 5558 5554 5550 5546 5541
5700 5699 5697 5694 5692 5689 5685 5682 5678 5675 5671 5668 5664 5660 5656 5652 5648 5644 5640 5635 5631 5627 5622 5617 5612 5607 5602 5597 5592 5588 5584 5580 5576 5573 5569 5565 5562 5559 5556 5552 5548 5543 5538
5690 5688 5686 5683 5680 5677 5674 5670 5667 5663 5659 5656 5652 5648 5644 5640 5636 5632 5628 5624 5619 5615 5610 5605 5600 5596 5591 5587 5583 5580 5577 5574 5570 5567 5565 5562 5560 5558 5555 5551 5546 5542 5536
5681 5679 5676 5673 5670 5666 5663 5659 5655 5651 5648 5644 5641 5637 5633 5629 5625 5621 5616 5612 5607 5603 5598 5594 5590 5586 5583 5580 5577 5574 5571 5568 5565 5563 5562 5560 5559 5556 5553 5550 5545 5540 5536
5672 5669 5666 5663 5660 5656 5652 5649 5645 5642 5638 5634 5630 5626 5622 5618 5614 5609 5605 5601 5596 5592 5588 5585 5581 5578 5575 5573 5570 5567 5565 5563 5562 5561 5560 5559 5558 5555 5552 5549 5545 5540 5536
5663 5660 5657 5654 5651 5647 5644 5640 5637 5633 5629 5624 5620 5616 5611 5607 5603 5599 5595 5591 5588 5584 5581 5578 5574 5571 5568 5566 5564 5562 5561 5560 5560 5560 5560 5559 5557 5555 5552 5549 5545 5541 5538
5655 5653 5650 5647 5644 5641 5637 5633 5629 5624 5620 5615 5610 5606 5602 5598 5594 5591 5588 5584 5581 5577 5574 5571 5568 5565 5563 5561 5559 5558 5558 5559 5559 5560 5560 5559 5557 5555 5552 5550 5547 5544 5541